User: anonymous   Login
Location: Unspecified
(0.0000°N, 0.0000°E)
Time: 04:23:44
(UTC+00:00)
Language:

N. Korean satellite - Orbit

View from above orbital plane
View from above orbital plane
View from above satellite
View from above satellite

Ground track
Ground track

The orbit data is extracted from the following two-line orbital elements,

1 39026U 12072A   14298.11092028  .00012689  00000-0  64734-3 0  1703
2 39026 097.3132 332.9492 0050194 338.8234 021.0920 15.15748764103049
Epoch (UTC): 25 October 2014 02:39:43
Eccentricity: 0.0050194
inclination: 97.3132°
perigee height: 484 km
apogee height: 553 km
right ascension of ascending node: 332.9492°
argument of perigee: 338.8234°
revolutions per day: 15.15748764
mean anomaly at epoch: 21.0920°
orbit number at epoch: 10304

The dashed part of the orbit path shows where the satellite is in the earth's shadow,  

DLR